Time,TemperatureF,DewpointF,PressureIn,WindDirection,WindDirectionDegrees,WindSpeedMPH,WindSpeedGustMPH,Humidity,HourlyPrecipIn,Conditions,Clouds,dailyrainin,SoftwareType,DateUTC
2013-07-29 00:00:00,60.5,55.3,29.85,North,32767,-999.0,0.0,83,0.00,,,0.00,Wunderground v.1.13,2013-07-29 07:00:00,
2013-07-29 00:05:00,60.4,55.2,29.85,North,32767,-999.0,0.0,83,0.00,,,0.00,Wunderground v.1.13,2013-07-29 07:05:00,
2013-07-29 00:15:00,60.4,55.5,29.85,North,32767,-999.0,0.0,84,0.00,,,0.00,Wunderground v.1.13,2013-07-29 07:15:00,
2013-07-29 00:20:00,60.4,55.5,29.85,North,32767,-999.0,0.0,84,0.00,,,0.00,Wunderground v.1.13,2013-07-29 07:20:00,
2013-07-29 00:25:00,60.4,55.5,29.86,North,32767,-999.0,0.0,84,0.00,,,0.00,Wunderground v.1.13,2013-07-29 07:25:00,
2013-07-29 00:30:00,60.4,55.9,29.86,North,32767,-999.0,0.0,85,0.00,,,0.00,Wunderground v.1.13,2013-07-29 07:30:00,
2013-07-29 00:35:00,60.4,55.9,29.86,North,32767,-999.0,0.0,85,0.00,,,0.00,Wunderground v.1.13,2013-07-29 07:35:00,
2013-07-29 00:40:00,60.4,55.9,29.86,North,32767,-999.0,0.0,85,0.00,,,0.00,Wunderground v.1.13,2013-07-29 07:40:00,
2013-07-29 00:50:00,60.4,55.9,29.86,North,32767,-999.0,0.0,85,0.00,,,0.00,Wunderground v.1.13,2013-07-29 07:50:00,
2013-07-29 00:55:00,60.4,55.9,29.86,North,32767,-999.0,0.0,85,0.00,,,0.00,Wunderground v.1.13,2013-07-29 07:55:00,
2013-07-29 01:00:00,60.4,55.9,29.86,North,32767,-999.0,0.0,85,0.00,,,0.00,Wunderground v.1.13,2013-07-29 08:00:00,
2013-07-29 01:05:00,60.3,55.8,29.86,North,32767,-999.0,0.0,85,0.00,,,0.00,Wunderground v.1.13,2013-07-29 08:05:00,
2013-07-29 01:15:00,60.2,55.7,29.86,North,32767,-999.0,0.0,85,0.00,,,0.00,Wunderground v.1.13,2013-07-29 08:15:00,
2013-07-29 01:25:00,60.0,55.5,29.86,North,32767,-999.0,0.0,85,0.00,,,0.00,Wunderground v.1.13,2013-07-29 08:25:00,
2013-07-29 01:30:00,59.9,55.4,29.86,North,32767,-999.0,0.0,85,0.00,,,0.00,Wunderground v.1.13,2013-07-29 08:30:00,
2013-07-29 01:35:00,59.8,55.3,29.86,North,32767,-999.0,0.0,85,0.00,,,0.00,Wunderground v.1.13,2013-07-29 08:35:00,
2013-07-29 01:40:00,59.6,55.1,29.86,North,32767,-999.0,0.0,85,0.00,,,0.00,Wunderground v.1.13,2013-07-29 08:40:00,
2013-07-29 01:45:00,59.5,55.0,29.86,North,32767,-999.0,0.0,85,0.00,,,0.00,Wunderground v.1.13,2013-07-29 08:45:00,
2013-07-29 01:55:00,59.0,54.2,29.86,North,32767,-999.0,0.0,84,0.00,,,0.00,Wunderground v.1.13,2013-07-29 08:55:00,
2013-07-29 02:00:00,59.0,54.2,29.86,North,32767,-999.0,0.0,84,0.00,,,0.00,Wunderground v.1.13,2013-07-29 09:00:00,
2013-07-29 02:05:00,59.0,54.2,29.86,North,32767,-999.0,0.0,84,0.00,,,0.00,Wunderground v.1.13,2013-07-29 09:05:00,
2013-07-29 02:15:00,58.6,53.8,29.86,North,32767,-999.0,0.0,84,0.00,,,0.00,Wunderground v.1.13,2013-07-29 09:15:00,
2013-07-29 02:20:00,58.5,53.7,29.86,North,32767,-999.0,0.0,84,0.00,,,0.00,Wunderground v.1.13,2013-07-29 09:20:00,
2013-07-29 02:30:00,58.2,53.4,29.86,North,32767,-999.0,0.0,84,0.00,,,0.00,Wunderground v.1.13,2013-07-29 09:30:00,
2013-07-29 02:35:00,58.0,53.2,29.86,North,32767,-999.0,0.0,84,0.00,,,0.00,Wunderground v.1.13,2013-07-29 09:35:00,
2013-07-29 02:40:00,57.9,53.1,29.86,North,32767,-999.0,0.0,84,0.00,,,0.00,Wunderground v.1.13,2013-07-29 09:40:00,
2013-07-29 02:45:00,57.8,53.0,29.86,North,32767,-999.0,0.0,84,0.00,,,0.00,Wunderground v.1.13,2013-07-29 09:45:00,
2013-07-29 02:50:00,57.9,53.4,29.86,North,32767,-999.0,0.0,85,0.00,,,0.00,Wunderground v.1.13,2013-07-29 09:50:00,
2013-07-29 02:55:00,58.0,53.5,29.86,North,32767,-999.0,0.0,85,0.00,,,0.00,Wunderground v.1.13,2013-07-29 09:55:00,
2013-07-29 03:00:00,58.0,53.5,29.86,North,32767,-999.0,0.0,85,0.00,,,0.00,Wunderground v.1.13,2013-07-29 10:00:00,
2013-07-29 03:05:00,58.0,53.5,29.86,North,32767,-999.0,0.0,85,0.00,,,0.00,Wunderground v.1.13,2013-07-29 10:05:00,
2013-07-29 03:15:00,57.9,53.7,29.86,North,32767,-999.0,0.0,86,0.00,,,0.00,Wunderground v.1.13,2013-07-29 10:15:00,
2013-07-29 03:20:00,58.0,53.8,29.86,North,32767,-999.0,0.0,86,0.00,,,0.00,Wunderground v.1.13,2013-07-29 10:20:00,
2013-07-29 03:25:00,58.0,53.8,29.86,North,32767,-999.0,0.0,86,0.00,,,0.00,Wunderground v.1.13,2013-07-29 10:25:00,
2013-07-29 03:30:00,57.9,53.4,29.86,North,32767,-999.0,0.0,85,0.00,,,0.00,Wunderground v.1.13,2013-07-29 10:30:00,
2013-07-29 03:35:00,57.8,53.3,29.86,North,32767,-999.0,0.0,85,0.00,,,0.00,Wunderground v.1.13,2013-07-29 10:35:00,
2013-07-29 03:50:00,57.5,53.0,29.86,North,32767,-999.0,0.0,85,0.00,,,0.00,Wunderground v.1.13,2013-07-29 10:50:00,
2013-07-29 03:55:00,57.3,52.8,29.87,North,32767,-999.0,0.0,85,0.00,,,0.00,Wunderground v.1.13,2013-07-29 10:55:00,
2013-07-29 04:00:00,57.2,52.7,29.86,North,32767,-999.0,0.0,85,0.00,,,0.00,Wunderground v.1.13,2013-07-29 11:00:00,
2013-07-29 04:05:00,57.0,52.5,29.86,North,32767,-999.0,0.0,85,0.00,,,0.00,Wunderground v.1.13,2013-07-29 11:05:00,
2013-07-29 04:20:00,56.6,52.1,29.86,North,32767,-999.0,0.0,85,0.00,,,0.00,Wunderground v.1.13,2013-07-29 11:20:00,
2013-07-29 04:25:00,56.4,51.9,29.87,North,32767,-999.0,0.0,85,0.00,,,0.00,Wunderground v.1.13,2013-07-29 11:25:00,
2013-07-29 04:30:00,56.3,51.8,29.87,North,32767,-999.0,0.0,85,0.00,,,0.00,Wunderground v.1.13,2013-07-29 11:30:00,
2013-07-29 04:35:00,56.1,51.7,29.86,North,32767,-999.0,0.0,85,0.00,,,0.00,Wunderground v.1.13,2013-07-29 11:35:00,
2013-07-29 04:40:00,56.0,51.6,29.87,North,32767,-999.0,0.0,85,0.00,,,0.00,Wunderground v.1.13,2013-07-29 11:40:00,
2013-07-29 04:50:00,55.8,51.4,29.87,North,32767,-999.0,0.0,85,0.00,,,0.00,Wunderground v.1.13,2013-07-29 11:50:00,
2013-07-29 04:55:00,55.7,51.3,29.87,North,32767,-999.0,0.0,85,0.00,,,0.00,Wunderground v.1.13,2013-07-29 11:55:00,